TimeCDT,TemperatureF,Dew PointF,Humidity,Sea Level PressureIn,VisibilityMPH,Wind Direction,Wind SpeedMPH,Gust SpeedMPH,PrecipitationIn,Events,Conditions,WindDirDegrees,DateUTC
12:15 AM,64.4,64.4,100,29.72,1.8,Calm,Calm,-,N/A,,Mist,0,2013-09-19 05:15:00
12:34 AM,64.4,64.4,100,29.72,1.8,Calm,Calm,-,N/A,,Mist,0,2013-09-19 05:34:00
12:55 AM,64.4,64.4,100,29.72,2.0,Calm,Calm,-,N/A,,Clear,0,2013-09-19 05:55:00
1:14 AM,64.4,64.4,100,29.74,2.5,Calm,Calm,-,N/A,,Scattered Clouds,0,2013-09-19 06:14:00
1:34 AM,64.4,62.6,94,29.75,1.2,Calm,Calm,-,N/A,,Mostly Cloudy,0,2013-09-19 06:34:00
1:54 AM,62.6,62.6,100,29.75,1.2,Calm,Calm,-,N/A,,Mostly Cloudy,0,2013-09-19 06:54:00
2:14 AM,62.6,62.6,100,29.74,1.5,Calm,Calm,-,N/A,,Scattered Clouds,0,2013-09-19 07:14:00
2:35 AM,62.6,62.6,100,29.73,1.0,Calm,Calm,-,N/A,,Scattered Clouds,0,2013-09-19 07:35:00
2:54 AM,62.6,62.6,100,29.72,1.2,Calm,Calm,-,N/A,,Mostly Cloudy,0,2013-09-19 07:54:00
3:14 AM,62.6,62.6,100,29.72,1.5,Calm,Calm,-,N/A,,Scattered Clouds,0,2013-09-19 08:14:00
3:35 AM,62.6,62.6,100,29.71,1.2,Calm,Calm,-,N/A,,Mostly Cloudy,0,2013-09-19 08:35:00
3:54 AM,62.6,62.6,100,29.71,1.5,East,4.6,-,N/A,,Mostly Cloudy,100,2013-09-19 08:54:00
4:15 AM,64.4,62.6,94,29.71,2.0,Calm,Calm,-,N/A,,Clear,0,2013-09-19 09:15:00
4:34 AM,64.4,62.6,94,29.73,1.8,Calm,Calm,-,N/A,,Mostly Cloudy,0,2013-09-19 09:34:00
4:55 AM,64.4,64.4,100,29.72,2.5,Calm,Calm,-,N/A,Rain,Light Rain,0,2013-09-19 09:55:00
5:14 AM,64.4,62.6,94,29.67,2.0,Calm,Calm,-,N/A,,Mostly Cloudy,0,2013-09-19 10:14:00
5:35 AM,64.4,64.4,100,29.67,3.0,ESE,5.8,-,N/A,,Clear,110,2013-09-19 10:35:00
5:54 AM,64.4,64.4,100,29.67,4.0,ESE,5.8,-,N/A,,Clear,120,2013-09-19 10:54:00
6:14 AM,64.4,64.4,100,29.68,5.0,Calm,Calm,-,N/A,,Clear,0,2013-09-19 11:14:00
6:35 AM,64.4,64.4,100,29.68,5.0,Calm,Calm,-,N/A,,Clear,0,2013-09-19 11:35:00
6:54 AM,64.4,64.4,100,29.68,2.5,Calm,Calm,-,N/A,,Clear,0,2013-09-19 11:54:00
7:15 AM,64.4,64.4,100,29.70,2.0,Calm,Calm,-,N/A,,Clear,0,2013-09-19 12:15:00
7:34 AM,64.4,64.4,100,29.70,1.2,Calm,Calm,-,N/A,,Mist,0,2013-09-19 12:34:00
7:55 AM,64.4,64.4,100,29.70,1.5,Calm,Calm,-,N/A,,Mist,0,2013-09-19 12:55:00
8:14 AM,64.4,64.4,100,29.69,1.5,Calm,Calm,-,N/A,,Mist,0,2013-09-19 13:14:00
8:34 AM,64.4,64.4,100,29.69,1.8,Calm,Calm,-,N/A,,Mist,0,2013-09-19 13:34:00
8:54 AM,64.4,64.4,100,29.69,1.8,Calm,Calm,-,N/A,,Scattered Clouds,0,2013-09-19 13:54:00
9:14 AM,68.0,68.0,100,29.70,4.0,Calm,Calm,-,N/A,,Scattered Clouds,0,2013-09-19 14:14:00
9:35 AM,69.8,68.0,94,29.69,5.0,Calm,Calm,-,N/A,,Scattered Clouds,0,2013-09-19 14:35:00
9:54 AM,69.8,69.8,100,29.67,7.0,Calm,Calm,-,N/A,,Scattered Clouds,0,2013-09-19 14:54:00
10:15 AM,69.8,69.8,100,29.67,7.0,Calm,Calm,-,N/A,,Scattered Clouds,0,2013-09-19 15:15:00
10:34 AM,69.8,68.0,94,29.67,5.0,Calm,Calm,-,N/A,,Clear,0,2013-09-19 15:34:00
10:54 AM,69.8,68.0,94,29.70,7.0,WNW,9.2,18.4,N/A,Thunderstorm,Thunderstorm,290,2013-09-19 15:54:00
11:00 AM,68.0,66.2,94,29.72,7.0,WNW,10.4,-,N/A,Thunderstorm,Mostly Cloudy,300,2013-09-19 16:00:00
11:25 AM,68.0,66.2,94,29.76,4.0,SSW,10.4,-,N/A,,Overcast,210,2013-09-19 16:25:00
11:45 AM,66.2,64.4,94,29.68,3.0,WNW,24.2,33.4,N/A,,Overcast,300,2013-09-19 16:45:00
12:05 PM,66.2,64.4,94,29.69,10.0,WSW,16.1,33.4,N/A,,Overcast,250,2013-09-19 17:05:00
12:25 PM,66.2,62.6,88,29.74,10.0,Calm,Calm,-,N/A,,Overcast,0,2013-09-19 17:25:00
12:45 PM,66.2,62.6,88,29.69,7.0,Calm,Calm,-,N/A,,Overcast,0,2013-09-19 17:45:00
1:05 PM,66.2,62.6,88,29.70,10.0,Calm,Calm,-,N/A,,Overcast,0,2013-09-19 18:05:00
1:25 PM,64.4,60.8,88,29.67,7.0,Calm,Calm,-,N/A,,Overcast,0,2013-09-19 18:25:00
1:45 PM,66.2,64.4,94,29.69,10.0,Calm,Calm,-,N/A,,Scattered Clouds,0,2013-09-19 18:45:00
2:05 PM,66.2,64.4,94,29.71,10.0,Calm,Calm,-,N/A,,Clear,0,2013-09-19 19:05:00
2:25 PM,68.0,64.4,88,29.72,10.0,South,5.8,-,N/A,,Scattered Clouds,190,2013-09-19 19:25:00
2:45 PM,68.0,62.6,83,29.72,10.0,SW,4.6,-,N/A,,Mostly Cloudy,220,2013-09-19 19:45:00
3:05 PM,71.6,66.2,83,29.73,10.0,Calm,Calm,-,N/A,,Overcast,0,2013-09-19 20:05:00
3:25 PM,69.8,62.6,78,29.73,10.0,Calm,Calm,-,N/A,,Overcast,0,2013-09-19 20:25:00
3:45 PM,69.8,64.4,83,29.74,10.0,WSW,3.5,-,N/A,,Overcast,240,2013-09-19 20:45:00
4:05 PM,71.6,64.4,78,29.73,10.0,WSW,5.8,-,N/A,,Overcast,250,2013-09-19 21:05:00
4:25 PM,71.6,64.4,78,29.73,10.0,WSW,6.9,-,N/A,,Overcast,240,2013-09-19 21:25:00
4:45 PM,71.6,64.4,78,29.72,10.0,West,9.2,-,N/A,,Mostly Cloudy,260,2013-09-19 21:45:00
5:05 PM,73.4,64.4,73,29.72,10.0,West,12.7,-,N/A,,Mostly Cloudy,270,2013-09-19 22:05:00
5:25 PM,71.6,62.6,73,29.73,10.0,West,10.4,-,N/A,,Mostly Cloudy,280,2013-09-19 22:25:00
5:45 PM,71.6,62.6,73,29.74,10.0,West,9.2,-,N/A,,Scattered Clouds,270,2013-09-19 22:45:00
6:05 PM,71.6,62.6,73,29.76,10.0,West,9.2,-,N/A,,Mostly Cloudy,280,2013-09-19 23:05:00
6:25 PM,71.6,62.6,73,29.75,10.0,Calm,Calm,-,N/A,,Scattered Clouds,0,2013-09-19 23:25:00
6:45 PM,68.0,60.8,78,29.76,10.0,Calm,Calm,-,N/A,,Clear,0,2013-09-19 23:45:00
7:05 PM,68.0,60.8,78,29.77,10.0,Calm,Calm,-,N/A,,Mostly Cloudy,0,2013-09-20 00:05:00
7:25 PM,66.2,60.8,83,29.78,10.0,West,8.1,-,N/A,,Overcast,280,2013-09-20 00:25:00
7:45 PM,66.2,60.8,83,29.79,10.0,WNW,6.9,-,N/A,,Overcast,300,2013-09-20 00:45:00
8:05 PM,66.2,62.6,88,29.79,10.0,Calm,Calm,-,N/A,,Overcast,0,2013-09-20 01:05:00
8:25 PM,66.2,60.8,83,29.79,10.0,Calm,Calm,-,N/A,,Mostly Cloudy,0,2013-09-20 01:25:00
8:45 PM,66.2,60.8,83,29.79,10.0,Calm,Calm,-,N/A,,Clear,0,2013-09-20 01:45:00
9:05 PM,64.4,59.0,83,29.79,10.0,Calm,Calm,-,N/A,,Clear,0,2013-09-20 02:05:00
9:25 PM,64.4,59.0,83,29.79,10.0,Calm,Calm,-,N/A,,Clear,0,2013-09-20 02:25:00
9:45 PM,60.8,57.2,88,29.78,10.0,Calm,Calm,-,N/A,,Clear,0,2013-09-20 02:45:00
10:05 PM,60.8,57.2,88,29.78,10.0,Calm,Calm,-,N/A,,Clear,0,2013-09-20 03:05:00
10:25 PM,60.8,57.2,88,29.78,10.0,Calm,Calm,-,N/A,,Clear,0,2013-09-20 03:25:00
10:45 PM,59.0,57.2,94,29.78,10.0,Calm,Calm,-,N/A,,Clear,0,2013-09-20 03:45:00
11:05 PM,59.0,57.2,94,-9999,7.0,Calm,Calm,-,N/A,,Clear,0,2013-09-20 04:05:00
11:25 PM,59.0,57.2,94,29.79,10.0,Calm,Calm,-,N/A,,Clear,0,2013-09-20 04:25:00
11:45 PM,57.2,55.4,94,29.79,10.0,Calm,Calm,-,N/A,,Clear,0,2013-09-20 04:45:00